GW2897 Weather Reports


time (UTC)temp
C
wind
direction
speed
KPH
gust
KPH
rain 1hr
cm
rain 24hr
cm
rain mn
cm
humidity
%
barometer
mb
20260831181823 34 132 3.2 9.7 0.00 0.00 0.00 59 1019.5
20260831180902 33 192 1.6 4.8 0.00 0.00 0.00 58 1019.7
20260831180002 33 48 3.2 9.7 0.00 0.00 0.00 60 1019.8
20260831175423 33 358 3.2 11.3 0.00 0.00 0.00 60 1019.8
20260831174523 33 102 4.8 11.3 0.00 0.00 0.00 61 1019.9
20260831173602 33 110 3.2 9.7 0.00 0.00 0.00 60 1019.8
20260831172702 33 168 1.6 6.4 0.00 0.00 0.00 61 1019.8
20260831171823 33 90 1.6 4.8 0.00 0.00 0.00 64 1019.9
20260831170902 32 192 1.6 6.4 0.00 0.00 0.00 64 1020.0
20260831170002 33 88 1.6 8.0 0.00 0.00 0.00 64 1020.1
20260831165402 33 43 0.0 4.8 0.00 0.00 0.00 64 1020.1
20260831164502 32 148 1.6 8.0 0.00 0.00 0.00 65 1020.2
20260831163602 32 129 3.2 8.0 0.00 0.00 0.00 63 1020.2
20260831162702 32 115 3.2 12.9 0.00 0.00 0.00 68 1020.3
20260831161802 32 59 3.2 6.4 0.00 0.00 0.00 67 1020.5
20260831160903 32 42 3.2 6.4 0.00 0.00 0.00 67 1020.6
20260831160024 31 157 1.6 6.4 0.00 0.00 0.00 68 1020.6
20260831155403 31 123 1.6 6.4 0.00 0.00 0.00 69 1020.6
20260831154523 31 118 3.2 9.7 0.00 0.00 0.00 71 1020.7
20260831153602 30 293 3.2 8.0 0.00 0.00 0.00 75 1020.8
20260831152703 30 314 1.6 9.7 0.00 0.00 0.00 74 1020.7
20260831151803 30 91 3.2 9.7 0.00 0.00 0.00 75 1020.8
20260831150902 28 294 3.2 8.0 0.00 0.00 0.00 79 1020.8
20260831150002 28 260 1.6 3.2 0.00 0.00 0.00 82 1020.7
20260831145402 27 295 1.6 4.8 0.00 0.00 0.00 83 1020.7
20260831144502 27 308 3.2 6.4 0.00 0.00 0.00 83 1020.7
20260831143603 27 290 3.2 8.0 0.00 0.00 0.00 84 1020.7
20260831142703 27 283 3.2 9.7 0.00 0.00 0.00 85 1020.8
20260831141803 27 331 1.6 6.4 0.00 0.00 0.00 86 1020.8
20260831140903 26 307 3.2 9.7 0.00 0.00 0.00 88 1020.7
20260831140003 26 314 1.6 6.4 0.00 0.00 0.00 89 1020.8
20260831135403 25 296 3.2 8.0 0.00 0.00 0.00 89 1020.8
20260831134502 25 297 3.2 6.4 0.00 0.00 0.00 92 1020.7
20260831133603 25 316 3.2 9.7 0.00 0.00 0.00 94 1020.7
20260831132702 24 314 1.6 4.8 0.00 0.00 0.00 98 1020.6
20260831131803 23 282 0.0 3.2 0.00 0.00 0.00 99 1020.5
20260831130903 23 313 0.0 3.2 0.00 0.00 0.00 99 1020.5
20260831130003 23 9 0.0 1.6 0.00 0.00 0.00 99 1020.5
20260831125403 22 17 0.0 1.6 0.00 0.00 0.00 99 1020.5
20260831124503 22 18 0.0 1.6 0.00 0.00 0.00 99 1020.5
20260831123603 22 45 0.0 1.6 0.00 0.00 0.00 99 1020.5
20260831122703 21 0 0.0 0.0 0.00 0.00 0.00 99 1020.5
20260831121824 21 0 0.0 0.0 0.00 0.00 0.00 99 1020.6
20260831120903 21 0 0.0 0.0 0.00 0.00 0.00 98 1020.6
20260831120003 20 113 0.0 4.8 0.00 0.00 0.00 98 1020.4
20260831115404 20 113 0.0 4.8 0.00 0.00 0.00 98 1020.4
20260831114503 20 0 0.0 0.0 0.00 0.00 0.00 98 1020.3
20260831113603 20 0 0.0 0.0 0.00 0.00 0.00 98 1020.3
20260831112703 20 0 0.0 0.0 0.00 0.00 0.00 97 1020.2
20260831111803 20 0 0.0 0.0 0.00 0.00 0.00 97 1020.2
20260831110903 20 0 0.0 0.0 0.00 0.00 0.00 98 1020.1
20260831110003 20 0 0.0 0.0 0.00 0.00 0.00 97 1020.1
20260831105403 20 0 0.0 0.0 0.00 0.00 0.00 97 1020.1
20260831104503 20 0 0.0 0.0 0.00 0.00 0.00 98 1020.1
20260831103603 20 0 0.0 0.0 0.00 0.00 0.00 97 1020.1
20260831102724 20 0 0.0 0.0 0.00 0.00 0.00 97 1020.1
20260831101803 20 0 0.0 0.0 0.00 0.00 0.00 98 1020.0
20260831100903 20 0 0.0 0.0 0.00 0.00 0.00 98 1019.9
20260831100000 20 0 0.0 0.0 0.00 0.00 0.00 98 1019.9
20260831095359 20 0 0.0 0.0 0.00 0.00 0.00 97 1019.8
20260831094501 20 0 0.0 0.0 0.00 0.00 0.00 97 1019.8
20260831093600 20 0 0.0 0.0 0.00 0.00 0.00 97 1019.9
20260831092700 20 0 0.0 0.0 0.00 0.00 0.00 97 1019.9
20260831091800 20 0 0.0 0.0 0.00 0.00 0.00 97 1019.9
20260831090900 20 0 0.0 0.0 0.00 0.00 0.00 97 1019.9
20260831090000 20 0 0.0 0.0 0.00 0.00 0.00 97 1019.8
20260831085400 20 0 0.0 0.0 0.00 0.00 0.00 97 1019.8
20260831084500 20 0 0.0 0.0 0.00 0.00 0.00 97 1019.8
20260831083600 21 0 0.0 0.0 0.00 0.00 0.00 97 1019.7
20260831082700 20 0 0.0 0.0 0.00 0.00 0.00 97 1019.6
20260831081821 21 0 0.0 0.0 0.00 0.00 0.00 97 1019.5
20260831080900 20 0 0.0 0.0 0.00 0.00 0.00 97 1019.4
20260831080000 20 0 0.0 0.0 0.00 0.00 0.00 97 1019.5
20260831075421 20 0 0.0 0.0 0.00 0.00 0.00 97 1019.5
20260831074500 21 0 0.0 0.0 0.00 0.00 0.00 97 1019.5
20260831072700 21 0 0.0 0.0 0.00 0.00 0.00 97 1019.3
20260831071800 21 0 0.0 0.0 0.00 0.00 0.00 97 1019.3
20260831070900 21 0 0.0 0.0 0.00 0.00 0.00 97 1019.3
20260831070000 21 0 0.0 0.0 0.00 0.00 0.00 97 1019.3
20260831065400 21 0 0.0 0.0 0.00 0.00 0.00 96 1019.4
20260831064500 21 0 0.0 0.0 0.00 0.00 0.00 97 1019.4
20260831063621 21 0 0.0 0.0 0.00 0.00 0.00 97 1019.6
20260831062700 21 0 0.0 0.0 0.00 0.00 0.00 97 1019.6
20260831061800 21 0 0.0 0.0 0.00 0.00 0.00 97 1019.6
20260831060900 21 0 0.0 0.0 0.00 0.00 0.00 97 1019.5
20260831060000 21 0 0.0 0.0 0.00 0.00 0.00 96 1019.5
20260831055400 21 0 0.0 0.0 0.00 0.00 0.00 96 1019.7
20260831054500 21 0 0.0 0.0 0.00 0.00 0.00 96 1019.8
20260831053600 21 0 0.0 0.0 0.00 0.00 0.00 96 1019.8
20260831052700 21 0 0.0 0.0 0.00 0.00 0.00 96 1020.0
20260831051801 22 0 0.0 0.0 0.00 0.00 0.00 96 1020.0
20260831050900 22 0 0.0 0.0 0.00 0.00 0.00 96 1019.9
20260831050000 22 0 0.0 0.0 0.00 0.00 0.00 96 1020.0
20260831045400 22 0 0.0 0.0 0.00 0.00 0.00 96 1019.9
20260831044500 22 0 0.0 0.0 0.00 0.00 0.00 95 1020.0
20260831043601 22 0 0.0 0.0 0.00 0.00 0.00 95 1020.1
20260831042700 22 0 0.0 0.0 0.00 0.00 0.00 95 1020.0
20260831041801 22 0 0.0 0.0 0.00 0.00 0.00 95 1020.1
20260831040000 22 0 0.0 0.0 0.00 0.00 0.00 95 1020.0
20260831035400 22 0 0.0 0.0 0.00 0.00 0.00 95 1020.0
20260831034501 22 0 0.0 0.0 0.00 0.00 0.00 94 1020.1
20260831033600 22 0 0.0 0.0 0.00 0.00 0.00 94 1020.1
20260831032701 22 0 0.0 0.0 0.00 0.00 0.00 94 1020.2
20260831031801 22 0 0.0 0.0 0.00 0.00 0.00 94 1020.1
20260831030900 22 0 0.0 0.0 0.00 0.00 0.00 94 1020.1
20260831030001 22 0 0.0 0.0 0.00 0.00 0.00 94 1020.0
20260831025422 23 0 0.0 0.0 0.00 0.00 0.00 94 1020.0
20260831024501 23 0 0.0 0.0 0.00 0.00 0.00 93 1020.1
20260831023622 23 0 0.0 0.0 0.00 0.00 0.00 93 1020.1
20260831022701 23 0 0.0 0.0 0.00 0.00 0.00 93 1020.1
20260831021822 23 0 0.0 0.0 0.00 0.00 0.00 93 1020.1
20260831020901 23 0 0.0 0.0 0.00 0.00 0.00 92 1020.0
20260831020001 23 0 0.0 0.0 0.00 0.00 0.00 91 1019.8
20260831015401 23 0 0.0 0.0 0.00 0.00 0.00 92 1019.9
20260831014501 23 0 0.0 0.0 0.00 0.00 0.00 91 1019.9
20260831013601 23 0 0.0 0.0 0.00 0.00 0.00 91 1020.0
20260831012701 24 0 0.0 0.0 0.00 0.00 0.00 90 1019.9
20260831011822 24 0 0.0 0.0 0.00 0.00 0.00 90 1019.7
20260831010901 24 0 0.0 0.0 0.00 0.00 0.00 89 1019.6
20260831010001 25 0 0.0 0.0 0.00 0.00 0.00 89 1019.6
20260831005401 25 0 0.0 0.0 0.00 0.00 0.00 89 1019.5
20260831004522 25 0 0.0 0.0 0.00 0.00 0.00 88 1019.4
20260831003601 25 0 0.0 0.0 0.00 0.00 0.00 88 1019.4
20260831002722 26 0 0.0 0.0 0.00 0.00 0.00 87 1019.3
20260831001801 26 0 0.0 0.0 0.00 0.00 0.00 85 1019.3
20260831000901 26 0 0.0 0.0 0.00 0.00 0.00 84 1019.3
20260831000001 27 0 0.0 0.0 0.00 0.00 0.00 83 1019.2
20260830235401 27 0 0.0 0.0 0.00 0.00 0.00 82 1019.1
20260830234523 28 0 0.0 0.0 0.00 0.00 0.00 81 1019.0
20260830233601 28 113 0.0 3.2 0.00 0.00 0.00 79 1019.2
20260830232701 30 124 0.0 4.8 0.00 0.00 0.00 77 1019.2
20260830231801 30 118 0.0 4.8 0.00 0.00 0.00 76 1019.1
20260830230901 30 104 0.0 4.8 0.00 0.00 0.00 74 1019.0
20260830230001 30 118 1.6 3.2 0.00 0.00 0.00 74 1018.9
20260830225401 30 122 1.6 4.8 0.00 0.00 0.00 74 1018.8
20260830224501 30 101 1.6 8.0 0.00 0.00 0.00 74 1018.7
20260830223602 30 130 0.0 4.8 0.00 0.00 0.00 75 1018.7
20260830222701 30 71 1.6 8.0 0.00 0.00 0.00 74 1018.6
20260830221801 30 59 1.6 8.0 0.00 0.00 0.00 73 1018.6
20260830220923 30 131 0.0 3.2 0.00 0.00 0.00 76 1018.7
20260830220023 30 116 0.0 4.8 0.00 0.00 0.00 74 1018.7
20260830215401 31 106 1.6 8.0 0.00 0.00 0.00 72 1018.8
20260830214523 31 119 1.6 8.0 0.00 0.00 0.00 71 1018.8
20260830213602 31 118 4.8 12.9 0.00 0.00 0.00 70 1018.7
20260830212701 32 104 3.2 11.3 0.00 0.00 0.00 68 1018.7
20260830211802 32 113 3.2 8.0 0.00 0.00 0.00 68 1018.7
20260830210923 32 109 3.2 9.7 0.00 0.00 0.00 67 1018.6
20260830210002 32 114 3.2 9.7 0.00 0.00 0.00 67 1018.8
20260830205402 32 125 3.2 8.0 0.00 0.00 0.00 68 1018.9
20260830204501 31 120 1.6 6.4 0.00 0.00 0.00 70 1019.0
20260830203622 31 114 1.6 4.8 0.00 0.00 0.00 74 1019.1
20260830202701 31 117 0.0 4.8 0.00 0.00 0.00 70 1019.1
20260830201802 32 105 1.6 8.0 0.00 0.00 0.00 67 1019.2
20260830200902 32 21 3.2 8.0 0.00 0.00 0.00 65 1019.1
20260830200002 31 314 1.6 6.4 0.00 0.00 0.00 66 1019.4
20260830195402 32 77 1.6 4.8 0.00 0.00 0.00 66 1019.4
20260830194523 31 54 1.6 6.4 0.00 0.00 0.00 68 1019.5
20260830193602 31 273 0.0 3.2 0.00 0.00 0.00 67 1019.6
20260830192702 30 225 0.0 1.6 0.00 0.00 0.00 74 1019.8
20260830191802 30 312 0.0 1.6 0.00 0.00 0.00 73 1020.0
20260830190902 30 324 3.2 6.4 0.00 0.00 0.00 72 1020.1
20260830190002 31 295 0.0 4.8 0.00 0.00 0.00 72 1020.0
20260830185402 31 107 1.6 4.8 0.00 0.00 0.00 71 1020.1
20260830184502 31 102 1.6 6.4 0.00 0.00 0.00 69 1020.2
20260830183602 31 176 1.6 6.4 0.00 0.00 0.00 70 1020.4
20260830182702 31 107 0.0 4.8 0.00 0.00 0.00 71 1020.6